TIME,DELAY(SENSOR),PRES,T(CTD),SAL,OXYGEN,RAWTEMP,T(OPTODE),TCPHASE,FLUOR,BETA(BETA700),BETA(BETA412),BETA(BETA440),CDOM,C(CSC),ED(ED412.40),ED(ED444.00),ED(ED489.70),ED(ED554.30),LU(LU411.80),LU(LU443.40),LU(LU489.60),LU(LU554.10),COMP,TILTX,TILTX(TILTY),CHECK
1351545380,5811,497.4800109863281000,7.0690999031066895,34.1120986938476560,95.4321289062500000,585.4769897460938000,7.0524201393127440,46.9541397094726560,51,106,87,81,77,15142,2147750491,2147422555,2148001216,2147871670,2147631616,2147080804,2148246985,2147200649,1693,4,13,13895
1351545551,5807,484.0899963378906000,7.3811001777648930,34.1160011291503900,103.5734024047851600,575.9500732421875000,7.3584690093994140,45.9433403015136700,51,107,89,81,78,15144,2147746953,2147420004,2148004068,2147873243,2147623076,2147084105,2148241051,2147204032,656,4,13,10280
1351545668,5806,473.0499877929687500,7.5956997871398930,34.1134986877441400,109.7919006347656200,569.2139282226562000,7.5743751525878910,45.1987686157226560,50,107,86,80,78,15143,2147745462,2147418934,2148004260,2147869238,2147626541,2147082432,2148240347,2147199670,36,4,12,4159
1351545783,5808,461.7200012207031000,7.7252001762390140,34.1105003356933600,116.2176971435546900,564.9514160156250000,7.7107930183410645,44.4956283569335940,51,105,88,80,78,15143,2147742838,2147419629,2148002349,2147873901,2147625782,2147086985,2148237037,2147200905,2985,4,13,38243
1351545888,5807,451.4700012207031000,7.8154001235961910,34.1124000549316400,119.8223037719726600,562.1002197265625000,7.8019537925720215,44.1011581420898440,51,106,88,81,76,15141,2147742217,2147417609,2148001645,2147871716,2147624658,2147082331,2148235172,2147200182,2985,4,13,16315
1351546003,5809,440.5100097656250000,8.0223999023437500,34.1132011413574200,125.6602020263671900,555.7390136718750000,8.0050926208496100,43.4477615356445300,50,105,87,81,76,15142,2147743058,2147423716,2148003236,2147876041,2147619913,2147085824,2148239442,2147202194,2398,4,13,59602
1351546130,5806,428.7900085449219000,8.2200002670288090,34.1086997985839840,133.2752075195312500,549.4462280273438000,8.2057075500488280,42.6512603759765600,50,104,88,81,77,15141,2147742784,2147422912,2148003154,2147873398,2147624091,2147084013,2148233536,2147200320,1735,4,13,14080
1351546247,5805,418.7000122070312500,8.4722003936767580,34.1039009094238300,142.7527008056640600,541.7225952148438000,8.4514980316162110,41.6963882446289060,50,106,91,79,76,15142,2147740946,2147417892,2148001654,2147871488,2147618349,2147089499,2148234642,2147203492,411,4,13,53371
1351546386,5809,406.8599853515625000,8.8847999572753900,34.1077995300293000,158.5760955810547000,528.4036865234375000,8.8742275238037110,40.1850585937500000,50,104,85,80,74,15142,2147738889,2147419163,2148001225,2147872685,2147622098,2147093577,2148231085,2147205083,1003,4,13,28643
1351546503,5807,396.6199951171875000,9.0896997451782230,34.1086997985839840,164.8161010742187500,521.3237304687500000,9.0983810424804690,39.5878982543945300,50,108,90,82,74,15143,2147740708,2147419885,2147999634,2147871094,2147617654,2147099574,2148232493,2147202816,32,4,13,64185
1351546630,5808,385.5000000000000000,9.4078998565673830,34.1142005920410160,171.5292968750000000,511.7797851562500000,9.3999462127685550,38.9295616149902340,50,106,83,79,73,15140,2147737088,2147420297,2148001435,2147874294,2147616466,2147099803,2148223917,2147202678,3520,4,13,61414
1351546769,5806,374.1099853515625000,9.8831996917724610,34.1263999938964840,187.7967987060547000,496.5237121582031000,9.8806409835815430,37.5442390441894500,49,104,87,81,72,15143,2147733056,2147422564,2148001837,2147874194,2147615021,2147098706,2148225069,2147205677,2694,3,13,60015
1351546910,5810,363.5000000000000000,10.0993995666503900,34.1342010498046900,195.8036956787109400,489.7665100097656000,10.0930299758911130,36.9135398864746100,49,103,89,81,71,15144,2147738194,2147422948,2147999753,2147871213,2147607771,2147105673,2148221467,2147202642,3164,4,14,59250
1351547073,5808,353.0899963378906000,10.4947004318237300,34.1472015380859400,202.9815063476562500,477.2637023925781000,10.4852199554443360,36.2597503662109400,49,104,88,80,70,15144,2147732544,2147425325,2147999588,2147871945,2147610843,2147104475,2148218322,2147204937,2034,4,14,53688
1351547233,5806,341.1499938964844000,11.0405998229980470,34.1654014587402340,207.3627929687500000,459.6448974609375000,11.0362100601196290,35.7065315246582000,49,103,90,80,69,15141,2147732882,2147419044,2148001974,2147875510,2147609426,2147108105,2148217188,2147205897,1868,4,13,40328
1351547360,5807,330.4400024414062500,11.4622001647949220,34.1875991821289060,210.9971008300781200,445.9566040039062500,11.4630002975463870,35.2717590332031250,49,106,86,81,70,15138,2147729161,2147419922,2148004169,2147875501,2147605147,2147109485,2148218980,2147204489,2137,3,13,60170
1351547489,5808,319.2699890136719000,11.9602003097534180,34.2198982238769500,213.9953002929687500,428.4873046875000000,12.0061798095703120,34.8202514648437500,48,103,88,80,68,15144,2147734674,2147421732,2148006518,2147871186,2147604105,2147119552,2148217243,2147206628,3215,3,13,39154
1351547616,5805,307.6700134277344000,12.4430999755859380,34.2510986328125000,217.4664001464843800,414.5892944335937500,12.4371900558471680,34.4058494567871100,48,105,87,80,69,15141,2147727817,2147422436,2148004836,2147872932,2147601161,2147119725,2148214171,2147208164,2693,4,13,55367
1351547745,5808,296.3500061035156000,12.7922000885009770,34.2752990722656250,218.1584014892578000,402.2882995605469000,12.8179101943969730,34.1762619018554700,48,105,86,80,68,15143,2147726985,2147423524,2148013165,2147869677,2147596416,2147124013,2148210011,2147208091,2098,3,14,18518
1351547884,5803,285.3099975585937500,13.3214998245239260,34.3129005432128900,217.9813995361328000,385.3536987304687500,13.3409404754638670,33.9249687194824200,48,106,87,81,68,15141,2147723419,2147424950,2148019913,2147873051,2147595620,2147124973,2148213504,2147207844,712,4,14,55331
1351548023,5808,274.5199890136719000,13.9343996047973630,34.3618011474609400,216.1083068847656200,366.4471130371094000,13.9235296249389650,33.7408409118652340,47,101,88,80,68,15138,2147724909,2147429741,2148025124,2147870582,2147598180,2147133074,2148217581,2147204873,978,3,14,60150
1351548147,5808,263.2799987792969000,14.3438997268676760,34.3988990783691400,214.3661041259765600,352.8156127929687500,14.3427696228027340,33.6324806213378900,50,105,87,81,69,15137,2147722093,2147436013,2148043456,2147872164,2147590162,2147136859,2148220123,2147208950,707,3,13,37888
1351548262,5807,251.5599975585937500,14.9530000686645500,34.4612007141113300,213.9882049560547000,332.2969055175781000,14.9727602005004880,33.3480987548828100,48,104,87,80,67,15134,2147721526,2147439661,2148063954,2147872676,2147585874,2147143021,2148228205,2147211456,3062,2,15,58158
1351548377,5806,240.7200012207031200,15.7156000137329100,34.5435981750488300,210.9232025146484400,307.9280090332031000,15.7195196151733400,33.1617088317871100,49,105,89,81,68,15133,2147719670,2147450724,2148090980,2147872987,2147585179,2147159378,2148235739,2147215460,2713,4,14,49426
1351548494,5808,230.0899963378906200,16.2999000549316400,34.6029014587402340,211.9788970947265600,287.5538940429687500,16.3429298400878900,32.8079910278320300,49,102,89,81,67,15130,2147718226,2147464310,2148131227,2147871122,2147578322,2147165769,2148251419,2147216356,206,3,13,58221
1351548621,5812,219.8600006103515600,17.0237007141113280,34.6670989990234400,213.3898925781250000,266.2113037109375000,16.9953098297119140,32.4253387451171900,49,106,86,80,66,15128,2147718336,2147485430,2148177362,2147873920,2147581376,2147192795,2148275986,2147219419,2254,3,14,31174
1351548774,5808,209.0700073242187500,18.0555992126464840,34.8055992126464840,211.5131988525390600,232.0993957519531200,18.0372295379638670,32.0492210388183600,51,107,88,80,65,15124,2147723849,2147520896,2148257837,2147874313,2147577856,2147211876,2148307794,2147218715,1269,3,14,49369
1351548985,5811,198.4499969482422000,19.3248004913330080,34.9737014770507800,212.1062927246093800,191.7196960449218800,19.2705707550048830,31.4610099792480470,54,106,87,81,64,15122,2147726436,2147565330,2148357129,2147873865,2147576649,2147246902,2148341046,2147222838,2205,3,14,34659
1351549078,5814,194.2400054931640600,19.4452991485595700,34.9952011108398440,215.2135925292968800,185.2774963378906200,19.4674396514892580,31.2066802978515620,55,104,92,79,64,15120,2147738614,2147588388,2148401362,2147872576,2147577490,2147269650,2148367936,2147227273,2698,2,16,24388
1351549157,5811,190.5399932861328000,19.8441009521484380,35.0490989685058600,216.5904998779297000,174.2104034423828000,19.8057498931884770,30.9844398498535160,54,106,88,81,64,15118,2147741906,2147613650,2148457645,2147872932,2147579355,2147281252,2148393225,2147227401,645,3,15,37617
1351549236,5808,186.4100036621093800,20.1331005096435550,35.0830993652343750,217.1952972412109400,164.8199005126953000,20.0929508209228500,30.8270606994628900,57,107,87,80,63,15107,2147751241,2147647204,2148521956,2147873819,2147580452,2147307062,2148425371,2147233344,1211,3,15,59762
1351549315,5807,182.1199951171875000,20.2952995300292970,35.1088981628418000,218.5717010498047000,158.2321014404297000,20.2945194244384770,30.6674709320068360,58,103,89,80,64,15112,2147760347,2147686308,2148605997,2147870957,2147583798,2147333988,2148462317,2147232877,51,3,15,64236
1351549384,5809,178.6199951171875000,20.5300998687744140,35.1277999877929700,218.2631988525390600,150.9779968261718800,20.5165691375732420,30.5871505737304700,63,106,90,81,64,15108,2147769938,2147727131,2148679195,2147874002,2147590464,2147361133,2148495762,2147242395,2689,2,15,9294
1351549475,5807,175.0399932861328000,20.7367992401123050,35.1445007324218750,218.3885040283203000,144.2503967285156200,20.7226009368896500,30.4917392730712900,64,109,89,80,63,15105,2147790061,2147774683,2148771958,2147874450,2147595675,2147386038,2148543158,2147244114,2307,2,15,53409
1351549602,5805,170.9900054931640600,20.9657993316650400,35.1576004028320300,217.2996978759765600,137.0890960693359400,20.9420108795166000,30.4535007476806640,69,110,87,82,62,15093,2147809947,2147817435,2148829010,2147874569,2147602605,2147408868,2148553755,2147246619,1982,2,15,32424
1351549728,5810,166.2100067138672000,21.2898998260498050,35.1796989440918000,216.5942993164062500,126.7598037719726600,21.2587108612060550,30.3537101745605470,77,113,88,81,62,15085,2147865161,2147972169,2149122596,2147876342,2147622125,2147492342,2148697536,2147256722,2982,3,15,2479
1351549795,5809,162.3899993896484400,21.3701000213623050,35.1791992187500000,216.3256988525390600,123.6352005004882800,21.3545703887939450,30.3269100189209000,80,114,88,82,62,15087,2147906029,2148073728,2149312448,2147875840,2147640713,2147546550,2148774802,2147261632,3347,2,15,10381
1351549862,5807,158.4600067138672000,21.4381008148193360,35.1794013977050800,215.8354949951172000,120.6367034912109400,21.4465808868408200,30.3127708435058600,84,117,91,81,64,15085,2147954002,2148184557,2149492726,2147878262,2147654235,2147594285,2148844470,2147268580,2385,1,15,26826
1351549941,5809,154.3300018310547000,21.7199001312255860,35.2041015625000000,216.1333007812500000,111.3280029296875000,21.7323894500732420,30.1754798889160160,88,114,91,82,63,15078,2148021577,2148334354,2149757074,2147880566,2147677796,2147667419,2148951241,2147274742,1526,2,16,61364
1351550022,5810,150.9900054931640600,21.8567008972167970,35.2106018066406250,219.6528930664062500,107.5133972167968800,21.8495903015136720,29.9452400207519530,89,113,88,82,62,15078,2148085193,2148478747,2150011556,2147880850,2147704502,2147745462,2149057188,2147280484,1281,2,16,58367
1351550137,5808,146.9100036621093800,21.9729995727539060,35.2197990417480500,222.0603942871093800,103.7755966186523400,21.9644699096679700,29.7753391265869140,91,114,90,82,61,15069,2148167104,2148621312,2150239387,2147883529,2147734747,2147805101,2149144557,2147290825,1744,2,15,52360
1351550264,5807,142.8800048828125000,22.0342006683349600,35.2243003845214840,222.0977935791015600,101.2609024047851600,22.0417804718017580,29.7409191131591800,93,114,91,82,61,15073,2148304246,2148880658,2150677330,2147886153,2147788690,2147938121,2149330706,2147307803,863,2,16,6184
1351550366,5807,138.7400054931640600,22.2310009002685550,35.2335014343261700,223.6300964355468800,95.3251266479492200,22.2243595123291000,29.5881500244140620,91,114,88,82,63,15069,2148522112,2149257362,2151267520,2147892690,2147870436,2148116699,2149565312,2147329865,745,2,15,28997
1351550445,5807,134.6999969482422000,22.3906002044677730,35.2450981140136700,224.6587982177734400,90.4137573242187500,22.3755207061767580,29.4741592407226560,97,115,89,82,61,15069,2148767424,2149641444,2151814491,2147896941,2147961024,2148296576,2149787200,2147343689,841,2,15,47272
1351550524,5808,130.6799926757812500,22.4106006622314450,35.2307014465332000,227.0269927978515600,89.7173614501953100,22.3969707489013670,29.3492908477783200,97,115,87,82,63,15060,2149111168,2150170011,2152594953,2147910171,2148095012,2148556964,2150115629,2147374208,496,2,15,55859
1351550615,5809,126.4100036621093800,22.6042003631591800,35.2252998352050800,226.6049957275390600,83.3494491577148400,22.5930995941162100,29.2885093688964840,107,118,92,83,61,15053,2149543844,2150808530,2153490916,2147923510,2148255414,2148848813,2150475474,2147404845,355,2,16,23782
1351550720,5811,123.2099990844726600,22.8041000366210940,35.2397994995117200,228.7760925292968800,77.6846237182617200,22.7677097320556640,29.1113491058349600,106,114,87,83,61,15052,2149894253,2151312246,2154189211,2147932982,2148391552,2149067574,2150738806,2147428050,3105,2,16,35871
1351551002,5809,119.2500000000000000,23.1632995605468750,35.2450981140136700,231.7897949218750000,65.2284011840820300,23.1520996093750000,28.8101196289062500,117,115,91,82,62,15040,2149005385,2149445174,2150865892,2147902848,2148067922,2148186285,2149395748,2147327040,1787,2,16,7357
1351551117,5809,114.2900009155273400,23.3934993743896500,35.2425003051757800,235.5041961669922000,57.8804512023925800,23.3791503906250000,28.5447006225585940,118,115,91,83,61,15036,2151615844,2153668809,2157363017,2147989028,2149079460,2150074148,2151905307,2147541037,1618,2,16,35032
1351551196,5808,110.7099990844726600,23.4832000732421880,35.2416992187500000,237.5541992187500000,54.9841117858886700,23.4687194824218750,28.4144096374511720,121,113,88,82,62,15035,2152483090,2154884132,2159080896,2148025892,2149427666,2150598253,2152565046,2147601142,1064,2,16,55432
1351551310,5812,106.3199996948242200,23.5608997344970700,35.2380981445312500,240.4868011474609400,52.1137390136718750,23.5575103759765620,28.2459602355957030,114,115,89,83,61,15031,2153484278,2156126912,2160650386,2148067858,2149855323,2151173147,2153188041,2147664338,1045,2,16,48290
1351551389,5808,102.6699981689453100,23.8885993957519530,35.2515983581543000,241.0706024169922000,41.1720695495605500,23.8963508605957030,28.0835704803466800,117,116,94,84,61,15021,2155133147,2158150436,2162989037,2148128630,2150549092,2152079186,2154119515,2147759332,1100,1,16,43792
1351551516,5809,99.3000030517578100,24.2740993499755860,35.2602005004882800,242.2928009033203000,31.0520992279052730,24.2102603912353500,27.9039802551269530,112,122,93,83,59,15005,2156785380,2160113609,2165128402,2148194806,2151276580,2152986523,2155080457,2147851200,844,2,16,42510
1351551618,5809,97.1500015258789000,24.4661998748779300,35.2587013244628900,242.1192016601562500,23.5765895843505860,24.4424800872802730,27.8193702697753900,108,122,92,84,60,15004,2158301284,2161869869,2166982418,2148248210,2151939117,2153775268,2155903515,2147940909,228,2,15,13270
1351551685,5809,95.0599975585937500,24.6958007812500000,35.2599983215332000,242.5908050537109400,16.5381393432617200,24.6613903045654300,27.7119693756103500,108,123,89,84,61,15003,2159894381,2163971748,2169324772,2148322459,2152712621,2154745618,2156858925,2148036214,1265,2,16,43934
1351551752,5807,92.9499969482421900,24.7247009277343750,35.2625999450683600,243.3860015869140600,14.8680000305175780,24.7133693695068360,27.6564598083496100,99,123,90,85,59,15010,2161123264,2165341101,2170582198,2148387611,2153381860,2155508324,2157573970,2148114349,1940,2,16,38301
1351551807,5808,90.9700012207031200,24.7371997833251950,35.2631988525390600,243.8751983642578000,14.2693595886230470,24.7320098876953120,27.6276397705078120,100,125,93,84,58,15011,2162623945,2167055332,2172446235,2148473417,2154107766,2156396644,2158497554,2148203940,2404,1,16,60414
1351551862,5808,88.8300018310546900,25.2028007507324220,35.2512016296386700,242.2424011230468800,1.4838700294494630,25.1305294036865230,27.5425395965576170,106,127,94,84,57,15000,2164483099,2169307236,2174858029,2148587922,2155016192,2157479780,2159519186,2148318500,2226,2,16,27887
1351551940,5805,86.2300033569336000,25.2978992462158200,35.2535018920898440,242.4992980957031200,-3.1526329517364500,25.2752799987792970,27.4745292663574220,93,125,90,85,60,14995,2166967204,2172309293,2178190912,2148734317,2156396626,2159190555,2161170605,2148477467,1226,2,16,20992
1351551995,5807,84.5000000000000000,25.3134002685546880,35.2551002502441400,242.6188964843750000,-4.1534190177917480,25.3065395355224600,27.4570102691650400,93,127,93,84,58,15008,2168305984,2173578989,2179392905,2148818221,2157181705,2160116525,2162040256,2148573211,441,1,16,49114
1351552050,5810,83.0100021362304700,25.3444004058837900,35.2521018981933600,242.5408020019531200,-4.9626231193542480,25.3318195343017580,27.4504203796386720,90,125,92,86,58,15003,2169874102,2175362733,2181178505,2148899026,2158118829,2161197568,2163010331,2148664466,370,1,16,54165
1351552129,5809,81.2900009155273400,25.3602008819580080,35.2517013549804700,242.3356018066406200,-5.7360291481018070,25.3559894561767580,27.4499797821044920,91,125,92,85,56,15004,2172199250,2178064877,2183941741,2149065883,2159543122,2162871003,2164522843,2148819099,464,2,16,34075
1351552243,5808,78.5599975585937500,25.5716991424560550,35.2363014221191400,240.9519958496093800,-12.1168298721313480,25.5555095672607420,27.4328193664550780,87,128,93,86,58,15001,2176071122,2182104338,2187469522,2149310198,2162262573,2165825417,2167037257,2149075492,255,2,16,56321
1351552298,5807,76.9000015258789000,25.8822994232177730,35.2504005432128900,239.5574035644531200,-22.0022392272949220,25.8651199340820300,27.3737297058105470,83,125,92,85,58,14996,2178380406,2184703561,2190080722,2149483410,2163872685,2167560914,2168449929,2149218038,3577,1,16,47717
1351552365,5809,75.4499969482421900,25.9288005828857420,35.2475013732910160,239.5606994628906200,-23.6711006164550780,25.9174499511718750,27.3530693054199220,78,124,93,85,58,15001,2181487954,2188245769,2193677540,2149699099,2166115044,2170060141,2170489453,2149422692,317,2,16,34855
1351552468,5807,73.2600021362304700,26.0349006652832030,35.2378997802734400,238.9682006835937500,-26.3159694671630860,26.0004196166992200,27.3470401763916000,75,124,92,85,57,14997,2167773686,2170238116,2171801673,2148861421,2159504182,2160959972,2160616758,2148458066,1008,2,16,33149
1351552547,5806,70.8199996948242200,26.1103992462158200,35.2555999755859400,238.0668029785156200,-29.6521091461181640,26.1051406860351560,27.3463706970214840,78,123,94,86,55,14997,2189948242,2197984228,2203216841,2150566765,2173675510,2178236553,2176921444,2150112283,1311,1,16,29342
1351552602,5811,68.1399993896484400,26.2126007080078120,35.2533988952636700,237.8544006347656200,-33.3272705078125000,26.2205905914306640,27.3109703063964840,74,121,91,84,57,14994,2193614080,2201974043,2207107584,2151110866,2177529545,2182161609,2179850020,2150475766,1415,2,16,57752
1351552657,5809,65.3899993896484400,26.3201007843017580,35.2538986206054700,237.8441009521484400,-36.1180801391601560,26.3083190917968750,27.2773494720459000,77,125,94,85,56,14981,2199305325,2208021138,2213044937,2151734427,2181781083,2186553243,2183213366,2150851876,1181,2,16,44883
1351552712,5811,62.7599983215332000,26.4109001159667970,35.2545013427734400,237.6083984375000000,-39.2064895629882800,26.4054698944091800,27.2502193450927730,77,123,94,85,59,14981,2205453330,2214711899,2220097298,2152729371,2186226505,2191293156,2187129627,2151344621,550,2,16,41082
1351552767,5807,60.1399993896484400,26.4918994903564450,35.2501983642578100,237.2256927490234400,-41.6335105895996100,26.4818592071533200,27.2376499176025400,75,124,91,87,57,14979,2210962496,2220165970,2225067922,2153490523,2191729974,2197139456,2191912420,2151985865,557,2,16,23769
1351552822,5805,57.6100006103515600,26.6019992828369140,35.2456016540527340,236.3195953369140600,-45.2680511474609400,26.5963306427001950,27.2339191436767580,82,150,92,87,58,14965,2219331328,2229317814,2234245357,2154941494,2197285010,2202823771,2196355364,2152640082,629,1,17,45067
1351552879,5809,55.1800003051757800,26.7884998321533200,35.2322998046875000,234.8016052246093800,-50.8573493957519500,26.7725505828857420,27.2336692810058600,73,132,97,86,56,14966,2224079433,2234066532,2238674130,2155996050,2201556169,2207137682,2199863533,2153157869,105,1,16,31299
1351552934,5806,53.4099998474121100,26.8845005035400400,35.2229995727539060,233.2371063232422000,-53.8346290588378900,26.8665199279785160,27.2680301666259770,70,121,93,86,58,14943,2227027958,2237988388,2242344850,2156809179,2205020672,2210458075,2202260288,2153599835,2363,2,16,4655
1351552989,5810,52.2500000000000000,26.8840007781982420,35.2249984741210940,232.4071960449218800,-54.2665710449218750,26.8801498413085940,27.3003501892089840,69,123,93,85,54,14989,2229007277,2240090102,2244286592,2157423771,2207950326,2213656384,2204835254,2153955136,1409,2,17,35168
1351553104,5807,50.5499992370605500,26.8848991394042970,35.2260017395019500,231.3307037353515600,-54.8772087097168000,26.8994293212890620,27.3418693542480470,66,119,92,87,56,14998,2233697609,2244451894,2249841462,2159044288,2210454125,2216205275,2207414381,2154432676,47,2,16,62495
1351553241,5808,47.9000015258789060,26.8952007293701170,35.2244987487793000,230.6940002441406200,-54.9142913818359400,26.9006004333496100,27.3705692291259770,62,121,93,85,54,15001,2240810560,2251315584,2255839021,2161041353,2220262893,2225675218,2213915346,2155578112,3262,2,16,54348
1351553296,5807,45.8600006103515600,26.9006996154785160,35.2242012023925800,230.4040985107422000,-55.0809898376464840,26.9058704376220700,27.3819408416748050,59,119,95,83,59,14993,2249330477,2261392649,2267384292,2163587648,2229492214,2234926016,2220661458,2156475236,3303,1,16,31517
1351553351,5810,43.7000007629394500,26.9004001617431640,35.2243995666503900,230.3896026611328000,-55.0872802734375000,26.9060707092285160,27.3824405670166000,58,121,91,84,57,14991,2251579254,2262362861,2267047277,2165000905,2238285860,2243469257,2226586944,2157473819,3246,1,16,45043
1351553406,5809,41.4900016784668000,26.9034996032714840,35.2238998413085940,230.3628997802734400,-55.2070693969726560,26.9098491668701170,27.3823204040527340,59,120,91,84,57,14996,2259730642,2271537014,2276572809,2168418843,2248303716,2253008338,2233173376,2158665563,2964,1,17,50064
1351553461,5809,39.2099990844726560,26.9036006927490230,35.2244987487793000,230.3986053466797000,-55.2322502136230500,26.9106502532959000,27.3803005218505860,57,119,93,85,56,14994,2265829504,2277928960,2282980342,2172012781,2257451236,2261520786,2238893961,2159780534,2741,1,16,29241
1351553539,5807,35.1300010681152340,26.9058990478515620,35.2235984802246100,230.3865966796875000,-55.2465095520019500,26.9111003875732420,27.3805408477783200,58,121,92,85,58,14992,2287879478,2302574363,2309552960,2182782966,2281111387,2283823058,2254255844,2163083922,2614,1,16,35777
1351553594,5810,31.5400009155273440,26.9057006835937500,35.2238006591796900,230.6009979248047000,-55.2581100463867200,26.9114608764648440,27.3706893920898440,58,122,91,85,58,14981,2309875812,2327174345,2335987035,2196240722,2307674569,2310277558,2273707190,2167921974,2510,2,16,27374